Time,TemperatureF,DewpointF,PressureIn,WindDirection,WindDirectionDegrees,WindSpeedMPH,WindSpeedGustMPH,Humidity,HourlyPrecipIn,Conditions,Clouds,dailyrainin,SoftwareType,DateUTC
2013-03-01 00:01:00,18.8,12.2,30.82,WNW,303,7.0,7.0,75,0.00,,---,0.00,VWS V14.01,2013-03-01 07:01:00,
2013-03-01 00:06:00,18.8,12.2,30.83,WNW,303,6.0,7.0,75,0.00,,---,0.00,VWS V14.01,2013-03-01 07:06:00,
2013-03-01 00:11:00,18.9,12.3,30.82,WNW,303,8.0,8.0,75,0.00,,---,0.00,VWS V14.01,2013-03-01 07:11:00,
2013-03-01 00:16:00,18.9,12.3,30.82,WNW,300,12.0,13.0,75,0.00,,---,0.00,VWS V14.01,2013-03-01 07:16:00,
2013-03-01 00:21:00,19.3,12.1,30.81,WNW,292,10.0,10.0,73,0.00,,---,0.00,VWS V14.01,2013-03-01 07:21:00,
2013-03-01 00:26:00,19.6,12.4,30.82,WNW,300,15.0,15.0,73,0.00,,---,0.00,VWS V14.01,2013-03-01 07:26:00,
2013-03-01 00:31:00,19.8,12.2,30.81,WNW,298,10.0,11.0,72,0.00,,---,0.00,VWS V14.01,2013-03-01 07:31:00,
2013-03-01 00:36:00,19.9,12.3,30.81,WNW,298,8.0,8.0,72,0.00,,---,0.00,VWS V14.01,2013-03-01 07:36:00,
2013-03-01 00:41:00,19.7,12.1,30.81,WNW,298,5.0,7.0,72,0.00,,---,0.00,VWS V14.01,2013-03-01 07:41:00,
2013-03-01 00:46:00,19.6,12.4,30.81,WNW,299,9.0,10.0,73,0.00,,---,0.00,VWS V14.01,2013-03-01 07:46:00,
2013-03-01 00:51:00,19.6,12.1,30.81,WNW,300,8.0,8.0,72,0.00,,---,0.00,VWS V14.01,2013-03-01 07:51:00,
2013-03-01 00:56:00,19.5,12.3,30.82,WNW,300,8.0,8.0,73,0.00,,---,0.00,VWS V14.01,2013-03-01 07:56:00,
2013-03-01 01:01:00,19.4,12.2,30.82,WNW,300,5.0,6.0,73,0.00,,---,0.00,VWS V14.01,2013-03-01 08:01:00,
2013-03-01 01:06:00,19.4,12.2,30.82,WNW,301,8.0,8.0,73,0.00,,---,0.00,VWS V14.01,2013-03-01 08:06:00,
2013-03-01 01:11:00,19.4,12.5,30.82,WNW,301,6.0,7.0,74,0.00,,---,0.00,VWS V14.01,2013-03-01 08:11:00,
2013-03-01 01:16:00,19.4,14.2,30.81,WNW,302,5.0,7.0,80,0.00,,---,0.00,VWS V14.01,2013-03-01 08:16:00,
2013-03-01 01:22:00,19.4,14.5,30.81,WNW,302,6.0,7.0,81,0.00,,---,0.00,VWS V14.01,2013-03-01 08:22:00,
2013-03-01 01:27:00,19.4,12.5,30.81,NW,304,7.0,11.0,74,0.00,,---,0.00,VWS V14.01,2013-03-01 08:27:00,
2013-03-01 01:32:00,19.5,12.6,30.81,NW,304,6.0,7.0,74,0.00,,---,0.00,VWS V14.01,2013-03-01 08:32:00,
2013-03-01 01:37:00,19.6,12.7,30.81,NW,304,7.0,7.0,74,0.00,,---,0.00,VWS V14.01,2013-03-01 08:37:00,
2013-03-01 01:42:00,19.6,12.7,30.81,NW,304,7.0,7.0,74,0.00,,---,0.00,VWS V14.01,2013-03-01 08:42:00,
2013-03-01 01:47:00,19.6,12.7,30.81,NW,304,7.0,7.0,74,0.00,,---,0.00,VWS V14.01,2013-03-01 08:47:00,
2013-03-01 01:52:00,19.7,12.8,30.81,NW,304,5.0,6.0,74,0.00,,---,0.00,VWS V14.01,2013-03-01 08:52:00,
2013-03-01 01:57:00,19.7,12.8,30.81,NW,304,5.0,6.0,74,0.00,,---,0.00,VWS V14.01,2013-03-01 08:57:00,
2013-03-01 02:02:00,19.6,12.7,30.80,NW,304,5.0,5.0,74,0.00,,---,0.00,VWS V14.01,2013-03-01 09:02:00,
2013-03-01 02:07:00,19.6,12.7,30.80,NW,304,4.0,5.0,74,0.00,,---,0.00,VWS V14.01,2013-03-01 09:07:00,
2013-03-01 02:12:00,19.7,12.8,30.80,NW,304,4.0,4.0,74,0.00,,---,0.00,VWS V14.01,2013-03-01 09:12:00,
2013-03-01 02:17:00,19.6,12.7,30.80,NW,304,4.0,4.0,74,0.00,,---,0.00,VWS V14.01,2013-03-01 09:17:00,
2013-03-01 02:22:00,19.5,12.9,30.79,NW,304,5.0,5.0,75,0.00,,---,0.00,VWS V14.01,2013-03-01 09:22:00,
2013-03-01 02:27:00,19.7,12.8,30.79,NW,304,5.0,6.0,74,0.00,,---,0.00,VWS V14.01,2013-03-01 09:27:00,
2013-03-01 02:32:00,19.7,12.8,30.79,NW,304,6.0,6.0,74,0.00,,---,0.00,VWS V14.01,2013-03-01 09:32:00,
2013-03-01 02:37:00,19.8,12.2,30.78,NW,304,6.0,6.0,72,0.00,,---,0.00,VWS V14.01,2013-03-01 09:37:00,
2013-03-01 02:42:00,20.0,12.1,30.78,NW,304,5.0,5.0,71,0.00,,---,0.00,VWS V14.01,2013-03-01 09:42:00,
2013-03-01 02:47:00,19.9,12.0,30.78,WNW,303,3.0,3.0,71,0.00,,---,0.00,VWS V14.01,2013-03-01 09:47:00,
2013-03-01 02:52:00,19.9,12.3,30.77,WNW,303,5.0,5.0,72,0.00,,---,0.00,VWS V14.01,2013-03-01 09:52:00,
2013-03-01 02:57:00,20.0,11.8,30.76,WNW,302,9.0,11.0,70,0.00,,---,0.00,VWS V14.01,2013-03-01 09:57:00,
2013-03-01 03:02:00,20.1,11.9,30.76,WNW,300,7.0,7.0,70,0.00,,---,0.00,VWS V14.01,2013-03-01 10:02:00,
2013-03-01 03:07:00,20.0,11.8,30.76,WNW,301,7.0,7.0,70,0.00,,---,0.00,VWS V14.01,2013-03-01 10:07:00,
2013-03-01 03:12:00,20.0,11.8,30.75,WNW,301,8.0,8.0,70,0.00,,---,0.00,VWS V14.01,2013-03-01 10:12:00,
2013-03-01 03:17:00,20.0,11.8,30.75,WNW,300,9.0,9.0,70,0.00,,---,0.00,VWS V14.01,2013-03-01 10:17:00,
2013-03-01 03:22:00,20.0,11.8,30.75,WNW,300,6.0,6.0,70,0.00,,---,0.00,VWS V14.01,2013-03-01 10:22:00,
2013-03-01 03:27:00,19.5,12.0,30.74,WNW,300,6.0,7.0,72,0.00,,---,0.00,VWS V14.01,2013-03-01 10:27:00,
2013-03-01 03:32:00,19.4,12.2,30.74,WNW,300,7.0,7.0,73,0.00,,---,0.00,VWS V14.01,2013-03-01 10:32:00,
2013-03-01 03:37:00,19.3,12.1,30.74,WNW,300,6.0,6.0,73,0.00,,---,0.00,VWS V14.01,2013-03-01 10:37:00,
2013-03-01 03:42:00,19.4,12.2,30.74,WNW,300,6.0,6.0,73,0.00,,---,0.00,VWS V14.01,2013-03-01 10:42:00,
2013-03-01 03:47:00,19.5,12.0,30.74,WNW,300,8.0,9.0,72,0.00,,---,0.00,VWS V14.01,2013-03-01 10:47:00,
2013-03-01 03:52:00,20.0,12.1,30.74,WNW,300,6.0,7.0,71,0.00,,---,0.00,VWS V14.01,2013-03-01 10:52:00,
2013-03-01 03:57:00,20.2,12.0,30.74,WNW,300,6.0,6.0,70,0.00,,---,0.00,VWS V14.01,2013-03-01 10:57:00,
2013-03-01 04:02:00,20.3,14.0,30.74,WNW,300,5.0,6.0,76,0.00,,---,0.00,VWS V14.01,2013-03-01 11:02:00,
2013-03-01 04:07:00,20.3,12.4,30.74,WNW,300,5.0,6.0,71,0.00,,---,0.00,VWS V14.01,2013-03-01 11:07:00,
2013-03-01 04:12:00,20.2,12.6,30.74,WNW,300,7.0,7.0,72,0.00,,---,0.00,VWS V14.01,2013-03-01 11:12:00,
2013-03-01 04:17:00,20.2,12.9,30.73,WNW,300,4.0,4.0,73,0.00,,---,0.00,VWS V14.01,2013-03-01 11:17:00,
2013-03-01 04:22:00,20.2,12.6,30.73,WNW,300,7.0,7.0,72,0.00,,---,0.00,VWS V14.01,2013-03-01 11:22:00,
2013-03-01 04:27:00,20.3,12.7,30.73,WNW,300,6.0,6.0,72,0.00,,---,0.00,VWS V14.01,2013-03-01 11:27:00,
2013-03-01 04:32:00,20.3,12.7,30.73,WNW,299,7.0,7.0,72,0.00,,---,0.00,VWS V14.01,2013-03-01 11:32:00,
2013-03-01 04:37:00,20.3,12.7,30.73,WNW,299,6.0,7.0,72,0.00,,---,0.00,VWS V14.01,2013-03-01 11:37:00,
2013-03-01 04:42:00,20.4,12.8,30.73,WNW,297,9.0,9.0,72,0.00,,---,0.00,VWS V14.01,2013-03-01 11:42:00,
2013-03-01 04:47:00,20.6,12.7,30.73,WNW,296,6.0,8.0,71,0.00,,---,0.00,VWS V14.01,2013-03-01 11:47:00,
2013-03-01 04:52:00,20.6,13.0,30.73,WNW,296,5.0,5.0,72,0.00,,---,0.00,VWS V14.01,2013-03-01 11:52:00,
2013-03-01 04:58:00,20.3,13.7,30.74,WNW,296,6.0,6.0,75,0.00,,---,0.00,VWS V14.01,2013-03-01 11:58:00,
2013-03-01 05:03:00,20.0,13.7,30.73,WNW,296,7.0,7.0,76,0.00,,---,0.00,VWS V14.01,2013-03-01 12:03:00,
2013-03-01 05:08:00,19.8,14.1,30.73,WNW,296,6.0,7.0,78,0.00,,---,0.00,VWS V14.01,2013-03-01 12:08:00,
2013-03-01 05:13:00,20.0,14.0,30.72,WNW,296,6.0,6.0,77,0.00,,---,0.00,VWS V14.01,2013-03-01 12:13:00,
2013-03-01 05:18:00,20.3,14.0,30.72,WNW,296,6.0,7.0,76,0.00,,---,0.00,VWS V14.01,2013-03-01 12:18:00,
2013-03-01 05:23:00,20.4,14.4,30.71,WNW,296,4.0,5.0,77,0.00,,---,0.00,VWS V14.01,2013-03-01 12:23:00,
2013-03-01 05:28:00,20.4,14.4,30.72,WNW,296,7.0,7.0,77,0.00,,---,0.00,VWS V14.01,2013-03-01 12:28:00,
2013-03-01 05:33:00,20.4,14.6,30.71,WNW,296,5.0,6.0,78,0.00,,---,0.00,VWS V14.01,2013-03-01 12:33:00,
2013-03-01 05:38:00,20.4,14.6,30.71,WNW,296,6.0,6.0,78,0.00,,---,0.00,VWS V14.01,2013-03-01 12:38:00,
2013-03-01 05:43:00,20.5,14.7,30.71,WNW,296,5.0,5.0,78,0.00,,---,0.00,VWS V14.01,2013-03-01 12:43:00,
2013-03-01 05:48:00,20.6,14.6,30.71,WNW,296,6.0,7.0,77,0.00,,---,0.00,VWS V14.01,2013-03-01 12:48:00,
2013-03-01 05:53:00,20.9,14.8,30.71,WNW,296,9.0,9.0,77,0.00,,---,0.00,VWS V14.01,2013-03-01 12:53:00,
2013-03-01 05:58:00,21.0,14.9,30.71,WNW,296,8.0,8.0,77,0.00,,---,0.00,VWS V14.01,2013-03-01 12:58:00,
2013-03-01 06:03:00,21.2,15.1,30.71,WNW,298,7.0,7.0,77,0.00,,---,0.00,VWS V14.01,2013-03-01 13:03:00,
2013-03-01 06:08:00,21.7,15.6,30.70,WNW,299,12.0,12.0,77,0.00,,---,0.00,VWS V14.01,2013-03-01 13:08:00,
2013-03-01 06:13:00,22.2,15.8,30.70,WNW,290,15.0,15.0,76,0.00,,---,0.00,VWS V14.01,2013-03-01 13:13:00,
2013-03-01 06:18:00,22.5,16.7,30.69,WNW,294,12.0,13.0,78,0.00,,---,0.00,VWS V14.01,2013-03-01 13:18:00,
2013-03-01 06:23:00,22.5,16.7,30.69,WNW,290,16.0,16.0,78,0.00,,---,0.00,VWS V14.01,2013-03-01 13:23:00,
2013-03-01 06:28:00,22.6,16.2,30.69,WNW,284,13.0,13.0,76,0.00,,---,0.00,VWS V14.01,2013-03-01 13:28:00,
2013-03-01 06:33:00,22.7,16.0,30.69,WNW,288,12.0,15.0,75,0.00,,---,0.00,VWS V14.01,2013-03-01 13:33:00,
2013-03-01 06:38:00,22.7,16.3,30.69,WNW,284,13.0,14.0,76,0.00,,---,0.00,VWS V14.01,2013-03-01 13:38:00,
2013-03-01 06:43:00,22.7,16.3,30.68,West,279,11.0,13.0,76,0.00,,---,0.00,VWS V14.01,2013-03-01 13:43:00,
2013-03-01 06:48:00,22.8,16.4,30.68,West,275,13.0,16.0,76,0.00,,---,0.00,VWS V14.01,2013-03-01 13:48:00,
2013-03-01 06:53:00,22.7,16.9,30.68,WNW,286,10.0,13.0,78,0.00,,---,0.00,VWS V14.01,2013-03-01 13:53:00,
2013-03-01 06:58:00,22.8,16.7,30.68,West,281,15.0,19.0,77,0.00,,---,0.00,VWS V14.01,2013-03-01 13:58:00,
2013-03-01 07:03:00,22.8,16.7,30.68,WNW,292,14.0,16.0,77,0.00,,---,0.00,VWS V14.01,2013-03-01 14:03:00,
2013-03-01 07:09:00,22.8,16.7,30.68,West,277,12.0,15.0,77,0.00,,---,0.00,VWS V14.01,2013-03-01 14:09:00,
2013-03-01 07:14:00,22.9,17.1,30.68,WNW,288,13.0,14.0,78,0.00,,---,0.00,VWS V14.01,2013-03-01 14:14:00,
2013-03-01 07:19:00,22.9,17.1,30.67,WNW,284,14.0,16.0,78,0.00,,---,0.00,VWS V14.01,2013-03-01 14:19:00,
2013-03-01 07:24:00,22.9,17.4,30.67,WNW,291,13.0,14.0,79,0.00,,---,0.00,VWS V14.01,2013-03-01 14:24:00,
2013-03-01 07:29:00,22.9,17.7,30.67,WNW,283,12.0,16.0,80,0.00,,---,0.00,VWS V14.01,2013-03-01 14:29:00,
2013-03-01 07:34:00,22.9,17.4,30.67,WNW,288,13.0,14.0,79,0.00,,---,0.00,VWS V14.01,2013-03-01 14:34:00,
2013-03-01 07:39:00,23.1,17.3,30.67,WNW,296,11.0,13.0,78,0.00,,---,0.00,VWS V14.01,2013-03-01 14:39:00,
2013-03-01 07:44:00,23.2,16.8,30.68,WNW,296,11.0,12.0,76,0.00,,---,0.00,VWS V14.01,2013-03-01 14:44:00,
2013-03-01 07:49:00,23.3,16.6,30.68,WNW,300,9.0,10.0,75,0.00,,---,0.00,VWS V14.01,2013-03-01 14:49:00,
2013-03-01 07:54:00,23.3,16.6,30.67,WNW,300,8.0,11.0,75,0.00,,---,0.00,VWS V14.01,2013-03-01 14:54:00,
2013-03-01 07:59:00,23.6,16.5,30.68,WNW,296,8.0,13.0,74,0.00,,---,0.00,VWS V14.01,2013-03-01 14:59:00,
2013-03-01 08:04:00,23.9,16.8,30.67,West,281,17.0,20.0,74,0.00,,---,0.00,VWS V14.01,2013-03-01 15:04:00,
2013-03-01 08:09:00,24.0,16.9,30.67,WNW,283,17.0,19.0,74,0.00,,---,0.00,VWS V14.01,2013-03-01 15:09:00,
2013-03-01 08:14:00,24.3,16.9,30.67,WNW,284,16.0,16.0,73,0.00,,---,0.00,VWS V14.01,2013-03-01 15:14:00,
2013-03-01 08:19:00,24.5,17.1,30.66,WNW,286,14.0,14.0,73,0.00,,---,0.00,VWS V14.01,2013-03-01 15:19:00,
2013-03-01 08:24:00,24.9,17.2,30.66,WNW,289,17.0,17.0,72,0.00,,---,0.00,VWS V14.01,2013-03-01 15:24:00,
2013-03-01 08:29:00,25.2,17.5,30.66,WNW,286,19.0,20.0,72,0.00,,---,0.00,VWS V14.01,2013-03-01 15:29:00,
2013-03-01 08:34:00,25.6,17.5,30.66,WNW,287,16.0,18.0,71,0.00,,---,0.00,VWS V14.01,2013-03-01 15:34:00,
2013-03-01 08:39:00,26.0,17.6,30.66,WNW,286,13.0,13.0,70,0.00,,---,0.00,VWS V14.01,2013-03-01 15:39:00,
2013-03-01 08:44:00,26.2,17.4,30.66,WNW,284,17.0,17.0,69,0.00,,---,0.00,VWS V14.01,2013-03-01 15:44:00,
2013-03-01 08:49:00,26.4,17.6,30.66,WNW,284,15.0,20.0,69,0.00,,---,0.00,VWS V14.01,2013-03-01 15:49:00,
2013-03-01 08:54:00,26.6,17.1,30.66,West,280,16.0,22.0,67,0.00,,---,0.00,VWS V14.01,2013-03-01 15:54:00,
2013-03-01 08:59:00,26.9,17.8,30.66,WNW,292,18.0,19.0,68,0.00,,---,0.00,VWS V14.01,2013-03-01 15:59:00,
2013-03-01 09:04:00,26.8,17.3,30.65,West,278,22.0,22.0,67,0.00,,---,0.00,VWS V14.01,2013-03-01 16:04:00,
2013-03-01 09:09:00,26.6,17.5,30.65,WNW,289,19.0,21.0,68,0.00,,---,0.00,VWS V14.01,2013-03-01 16:09:00,
2013-03-01 09:14:00,26.8,17.7,30.65,West,277,22.0,22.0,68,0.00,,---,0.00,VWS V14.01,2013-03-01 16:14:00,
2013-03-01 09:19:00,26.9,17.8,30.65,WNW,283,18.0,22.0,68,0.00,,---,0.00,VWS V14.01,2013-03-01 16:19:00,
2013-03-01 09:24:00,27.0,17.9,30.65,West,280,18.0,21.0,68,0.00,,---,0.00,VWS V14.01,2013-03-01 16:24:00,
2013-03-01 09:29:00,27.1,17.6,30.65,WNW,284,18.0,22.0,67,0.00,,---,0.00,VWS V14.01,2013-03-01 16:29:00,
2013-03-01 09:34:00,27.1,18.0,30.65,WNW,288,14.0,16.0,68,0.00,,---,0.00,VWS V14.01,2013-03-01 16:34:00,
2013-03-01 09:39:00,27.6,17.7,30.65,WNW,290,17.0,17.0,66,0.00,,---,0.00,VWS V14.01,2013-03-01 16:39:00,
2013-03-01 09:44:00,27.6,17.7,30.64,West,279,14.0,18.0,66,0.00,,---,0.00,VWS V14.01,2013-03-01 16:44:00,
2013-03-01 09:49:00,27.6,17.7,30.64,West,277,16.0,19.0,66,0.00,,---,0.00,VWS V14.01,2013-03-01 16:49:00,
2013-03-01 09:54:00,27.9,18.0,30.64,WNW,290,15.0,18.0,66,0.00,,---,0.00,VWS V14.01,2013-03-01 16:54:00,
2013-03-01 09:59:00,28.1,17.9,30.64,WNW,287,20.0,20.0,65,0.00,,---,0.00,VWS V14.01,2013-03-01 16:59:00,
2013-03-01 10:04:00,28.3,17.0,30.64,WNW,288,14.0,21.0,62,0.00,,---,0.00,VWS V14.01,2013-03-01 17:04:00,
2013-03-01 10:09:00,28.8,17.1,30.63,WNW,292,12.0,16.0,61,0.00,,---,0.00,VWS V14.01,2013-03-01 17:09:00,
2013-03-01 10:15:00,29.0,17.2,30.63,West,273,17.0,18.0,61,0.00,,---,0.00,VWS V14.01,2013-03-01 17:15:00,
2013-03-01 10:20:00,29.3,17.1,30.62,WNW,288,18.0,23.0,60,0.00,,---,0.00,VWS V14.01,2013-03-01 17:20:00,
2013-03-01 10:25:00,29.2,17.1,30.62,West,274,18.0,22.0,60,0.00,,---,0.00,VWS V14.01,2013-03-01 17:25:00,
2013-03-01 10:30:00,29.5,17.3,30.62,WNW,290,15.0,18.0,60,0.00,,---,0.00,VWS V14.01,2013-03-01 17:30:00,
2013-03-01 10:35:00,29.8,17.2,30.62,West,274,15.0,17.0,59,0.00,,---,0.00,VWS V14.01,2013-03-01 17:35:00,
2013-03-01 10:40:00,30.1,17.5,30.62,West,281,15.0,15.0,59,0.00,,---,0.00,VWS V14.01,2013-03-01 17:40:00,
2013-03-01 10:45:00,30.5,17.1,30.62,WNW,283,16.0,16.0,57,0.00,,---,0.00,VWS V14.01,2013-03-01 17:45:00,
2013-03-01 10:50:00,30.7,16.9,30.62,WNW,288,15.0,18.0,56,0.00,,---,0.00,VWS V14.01,2013-03-01 17:50:00,
2013-03-01 10:55:00,30.6,17.2,30.61,West,279,17.0,20.0,57,0.00,,---,0.00,VWS V14.01,2013-03-01 17:55:00,
2013-03-01 11:00:00,30.9,17.9,30.62,WNW,294,15.0,21.0,58,0.00,,---,0.00,VWS V14.01,2013-03-01 18:00:00,
2013-03-01 11:05:00,30.8,18.2,30.62,WNW,286,20.0,23.0,59,0.00,,---,0.00,VWS V14.01,2013-03-01 18:05:00,
2013-03-01 11:10:00,30.7,18.1,30.62,WNW,287,15.0,17.0,59,0.00,,---,0.00,VWS V14.01,2013-03-01 18:10:00,
2013-03-01 11:15:00,31.0,18.4,30.62,WNW,290,17.0,19.0,59,0.00,,---,0.00,VWS V14.01,2013-03-01 18:15:00,
2013-03-01 11:20:00,31.1,18.5,30.61,West,271,22.0,22.0,59,0.00,,---,0.00,VWS V14.01,2013-03-01 18:20:00,
2013-03-01 11:25:00,31.2,18.5,30.61,WNW,285,20.0,20.0,59,0.00,,---,0.00,VWS V14.01,2013-03-01 18:25:00,
2013-03-01 11:30:00,31.3,18.2,30.61,West,279,14.0,20.0,58,0.00,,---,0.00,VWS V14.01,2013-03-01 18:30:00,
2013-03-01 11:35:00,31.6,18.5,30.61,WNW,290,12.0,14.0,58,0.00,,---,0.00,VWS V14.01,2013-03-01 18:35:00,
2013-03-01 11:40:00,31.5,18.0,30.61,WNW,295,18.0,19.0,57,0.00,,---,0.00,VWS V14.01,2013-03-01 18:40:00,
2013-03-01 11:45:00,31.5,17.6,30.60,West,272,18.0,18.0,56,0.00,,---,0.00,VWS V14.01,2013-03-01 18:45:00,
2013-03-01 11:50:00,31.7,18.2,30.60,West,275,23.0,23.0,57,0.00,,---,0.00,VWS V14.01,2013-03-01 18:50:00,
2013-03-01 11:55:00,31.7,18.2,30.60,WNW,282,17.0,25.0,57,0.00,,---,0.00,VWS V14.01,2013-03-01 18:55:00,
2013-03-01 12:00:00,31.6,18.1,30.60,West,281,21.0,21.0,57,0.00,,---,0.00,VWS V14.01,2013-03-01 19:00:00,
2013-03-01 12:05:00,31.6,18.9,30.59,West,269,16.0,19.0,59,0.00,,---,0.00,VWS V14.01,2013-03-01 19:05:00,
2013-03-01 12:10:00,31.7,19.0,30.59,West,271,20.0,22.0,59,0.00,,---,0.00,VWS V14.01,2013-03-01 19:10:00,
2013-03-01 12:15:00,31.6,18.5,30.59,WSW,257,20.0,20.0,58,0.00,,---,0.00,VWS V14.01,2013-03-01 19:15:00,
2013-03-01 12:20:00,31.9,19.2,30.58,West,281,14.0,14.0,59,0.00,,---,0.00,VWS V14.01,2013-03-01 19:20:00,
2013-03-01 12:25:00,32.1,19.0,30.58,West,271,21.0,26.0,58,0.00,,---,0.00,VWS V14.01,2013-03-01 19:25:00,
2013-03-01 12:30:00,32.2,19.5,30.58,West,275,16.0,16.0,59,0.00,,---,0.00,VWS V14.01,2013-03-01 19:30:00,
2013-03-01 12:35:00,32.3,19.2,30.57,WNW,298,18.0,23.0,58,0.00,,---,0.00,VWS V14.01,2013-03-01 19:35:00,
2013-03-01 12:40:00,32.4,18.9,30.57,WNW,282,17.0,25.0,57,0.00,,---,0.00,VWS V14.01,2013-03-01 19:40:00,
2013-03-01 12:45:00,32.3,18.8,30.56,West,271,16.0,17.0,57,0.00,,---,0.00,VWS V14.01,2013-03-01 19:45:00,
2013-03-01 12:50:00,32.5,19.4,30.56,West,272,18.0,21.0,58,0.00,,---,0.00,VWS V14.01,2013-03-01 19:50:00,
2013-03-01 12:55:00,32.5,19.0,30.56,West,273,17.0,19.0,57,0.00,,---,0.00,VWS V14.01,2013-03-01 19:55:00,
2013-03-01 13:00:00,32.6,19.1,30.55,WSW,255,23.0,23.0,57,0.00,,---,0.00,VWS V14.01,2013-03-01 20:00:00,
2013-03-01 13:05:00,32.7,19.6,30.55,West,272,18.0,20.0,58,0.00,,---,0.00,VWS V14.01,2013-03-01 20:05:00,
2013-03-01 13:10:00,32.9,19.4,30.55,West,275,18.0,23.0,57,0.00,,---,0.00,VWS V14.01,2013-03-01 20:10:00,
2013-03-01 13:15:00,32.9,18.9,30.54,West,265,23.0,24.0,56,0.00,,---,0.00,VWS V14.01,2013-03-01 20:15:00,
2013-03-01 13:21:00,32.9,19.4,30.54,WNW,288,16.0,22.0,57,0.00,,---,0.00,VWS V14.01,2013-03-01 20:21:00,
2013-03-01 13:26:00,33.0,19.4,30.54,WNW,283,14.0,19.0,57,0.00,,---,0.00,VWS V14.01,2013-03-01 20:26:00,
2013-03-01 13:31:00,33.0,19.0,30.54,West,267,22.0,22.0,56,0.00,,---,0.00,VWS V14.01,2013-03-01 20:31:00,
2013-03-01 13:35:00,32.9,19.8,30.54,WNW,288,19.0,22.0,58,0.00,,---,0.00,VWS V14.01,2013-03-01 20:35:00,
2013-03-01 13:40:00,33.0,19.4,30.53,WNW,288,17.0,22.0,57,0.00,,---,0.00,VWS V14.01,2013-03-01 20:40:00,
2013-03-01 13:46:00,32.9,20.2,30.53,West,261,24.0,24.0,59,0.00,,---,0.00,VWS V14.01,2013-03-01 20:46:00,
2013-03-01 13:51:00,32.8,19.3,30.53,West,267,17.0,25.0,57,0.00,,---,0.00,VWS V14.01,2013-03-01 20:51:00,
2013-03-01 13:56:00,33.0,19.9,30.53,WNW,288,23.0,23.0,58,0.00,,---,0.00,VWS V14.01,2013-03-01 20:56:00,
2013-03-01 14:01:00,33.2,20.0,30.53,West,272,18.0,18.0,58,0.00,,---,0.00,VWS V14.01,2013-03-01 21:01:00,
2013-03-01 14:06:00,33.3,19.7,30.53,West,279,16.0,18.0,57,0.00,,---,0.00,VWS V14.01,2013-03-01 21:06:00,
2013-03-01 14:11:00,33.4,19.4,30.52,West,274,20.0,29.0,56,0.00,,---,0.00,VWS V14.01,2013-03-01 21:11:00,
2013-03-01 14:16:00,33.3,18.9,30.53,West,263,18.0,22.0,55,0.00,,---,0.00,VWS V14.01,2013-03-01 21:16:00,
2013-03-01 14:21:00,33.4,18.6,30.52,West,264,16.0,16.0,54,0.00,,---,0.00,VWS V14.01,2013-03-01 21:21:00,
2013-03-01 14:26:00,33.5,19.1,30.52,West,269,14.0,18.0,55,0.00,,---,0.00,VWS V14.01,2013-03-01 21:26:00,
2013-03-01 14:31:00,33.4,19.0,30.52,West,267,17.0,21.0,55,0.00,,---,0.00,VWS V14.01,2013-03-01 21:31:00,
2013-03-01 14:36:00,33.4,19.8,30.52,West,281,16.0,16.0,57,0.00,,---,0.00,VWS V14.01,2013-03-01 21:36:00,
2013-03-01 14:41:00,33.4,19.4,30.53,WSW,251,21.0,21.0,56,0.00,,---,0.00,VWS V14.01,2013-03-01 21:41:00,
2013-03-01 14:46:00,33.2,19.6,30.53,West,267,14.0,19.0,57,0.00,,---,0.00,VWS V14.01,2013-03-01 21:46:00,
2013-03-01 14:51:00,33.0,19.4,30.53,West,265,15.0,17.0,57,0.00,,---,0.00,VWS V14.01,2013-03-01 21:51:00,
2013-03-01 14:56:00,33.1,19.1,30.53,West,260,11.0,13.0,56,0.00,,---,0.00,VWS V14.01,2013-03-01 21:56:00,
2013-03-01 15:01:00,33.0,18.6,30.53,WSW,254,21.0,21.0,55,0.00,,---,0.00,VWS V14.01,2013-03-01 22:01:00,
2013-03-01 15:06:00,33.1,19.1,30.52,West,263,15.0,15.0,56,0.00,,---,0.00,VWS V14.01,2013-03-01 22:06:00,
2013-03-01 15:11:00,33.0,18.6,30.52,West,262,12.0,19.0,55,0.00,,---,0.00,VWS V14.01,2013-03-01 22:11:00,
2013-03-01 15:16:00,33.0,18.2,30.52,SW,236,21.0,21.0,54,0.00,,---,0.00,VWS V14.01,2013-03-01 22:16:00,
2013-03-01 15:21:00,33.0,19.0,30.52,WSW,257,14.0,14.0,56,0.00,,---,0.00,VWS V14.01,2013-03-01 22:21:00,
2013-03-01 15:26:00,32.9,18.9,30.52,West,271,12.0,13.0,56,0.00,,---,0.00,VWS V14.01,2013-03-01 22:26:00,
2013-03-01 15:31:00,33.0,18.6,30.52,West,279,12.0,14.0,55,0.00,,---,0.00,VWS V14.01,2013-03-01 22:31:00,
2013-03-01 15:36:00,32.8,19.3,30.52,West,275,17.0,18.0,57,0.00,,---,0.00,VWS V14.01,2013-03-01 22:36:00,
2013-03-01 15:41:00,32.6,19.9,30.52,West,265,17.0,18.0,59,0.00,,---,0.00,VWS V14.01,2013-03-01 22:41:00,
2013-03-01 15:46:00,32.5,19.0,30.52,WSW,255,14.0,18.0,57,0.00,,---,0.00,VWS V14.01,2013-03-01 22:46:00,
2013-03-01 15:51:00,32.3,19.6,30.52,WSW,250,17.0,20.0,59,0.00,,---,0.00,VWS V14.01,2013-03-01 22:51:00,
2013-03-01 15:56:00,32.1,19.8,30.52,West,277,17.0,19.0,60,0.00,,---,0.00,VWS V14.01,2013-03-01 22:56:00,
2013-03-01 16:01:00,31.9,19.2,30.52,WSW,258,16.0,18.0,59,0.00,,---,0.00,VWS V14.01,2013-03-01 23:01:00,
2013-03-01 16:06:00,31.8,19.5,30.53,West,265,20.0,21.0,60,0.00,,---,0.00,VWS V14.01,2013-03-01 23:06:00,
2013-03-01 16:11:00,31.6,19.7,30.53,West,266,18.0,21.0,61,0.00,,---,0.00,VWS V14.01,2013-03-01 23:11:00,
2013-03-01 16:16:00,31.4,19.5,30.53,West,265,20.0,20.0,61,0.00,,---,0.00,VWS V14.01,2013-03-01 23:16:00,
2013-03-01 16:21:00,31.0,19.9,30.53,West,267,18.0,19.0,63,0.00,,---,0.00,VWS V14.01,2013-03-01 23:21:00,
2013-03-01 16:26:00,30.9,19.4,30.53,West,271,16.0,16.0,62,0.00,,---,0.00,VWS V14.01,2013-03-01 23:26:00,
2013-03-01 16:31:00,30.8,19.3,30.53,WSW,255,17.0,20.0,62,0.00,,---,0.00,VWS V14.01,2013-03-01 23:31:00,
2013-03-01 16:36:00,30.5,19.4,30.53,West,267,17.0,21.0,63,0.00,,---,0.00,VWS V14.01,2013-03-01 23:36:00,
2013-03-01 16:41:00,30.3,19.6,30.53,West,263,21.0,21.0,64,0.00,,---,0.00,VWS V14.01,2013-03-01 23:41:00,
2013-03-01 16:46:00,30.1,19.8,30.54,West,267,15.0,15.0,65,0.00,,---,0.00,VWS V14.01,2013-03-01 23:46:00,
2013-03-01 16:51:00,30.0,19.7,30.54,West,279,11.0,14.0,65,0.00,,---,0.00,VWS V14.01,2013-03-01 23:51:00,
2013-03-01 16:56:00,29.9,19.2,30.54,WSW,257,15.0,15.0,64,0.00,,---,0.00,VWS V14.01,2013-03-01 23:56:00,
2013-03-01 17:01:00,29.8,19.5,30.53,WNW,282,15.0,16.0,65,0.00,,---,0.00,VWS V14.01,2013-03-02 00:01:00,
2013-03-01 17:06:00,29.4,19.5,30.53,West,268,15.0,15.0,66,0.00,,---,0.00,VWS V14.01,2013-03-02 00:06:00,
2013-03-01 17:12:00,29.2,19.3,30.53,West,281,11.0,13.0,66,0.00,,---,0.00,VWS V14.01,2013-03-02 00:12:00,
2013-03-01 17:17:00,28.9,19.0,30.53,West,270,15.0,15.0,66,0.00,,---,0.00,VWS V14.01,2013-03-02 00:17:00,
2013-03-01 17:22:00,28.7,18.8,30.53,West,280,15.0,19.0,66,0.00,,---,0.00,VWS V14.01,2013-03-02 00:22:00,
2013-03-01 17:27:00,28.6,18.7,30.53,West,279,11.0,14.0,66,0.00,,---,0.00,VWS V14.01,2013-03-02 00:27:00,
2013-03-01 17:32:00,28.1,18.6,30.53,WNW,285,14.0,14.0,67,0.00,,---,0.00,VWS V14.01,2013-03-02 00:32:00,
2013-03-01 17:37:00,28.0,18.5,30.53,West,279,12.0,13.0,67,0.00,,---,0.00,VWS V14.01,2013-03-02 00:37:00,
2013-03-01 17:42:00,28.0,18.5,30.53,WNW,287,15.0,19.0,67,0.00,,---,0.00,VWS V14.01,2013-03-02 00:42:00,
2013-03-01 17:47:00,28.1,18.6,30.53,West,278,13.0,17.0,67,0.00,,---,0.00,VWS V14.01,2013-03-02 00:47:00,
2013-03-01 17:52:00,28.1,18.6,30.53,WNW,288,16.0,17.0,67,0.00,,---,0.00,VWS V14.01,2013-03-02 00:52:00,
2013-03-01 17:57:00,28.0,18.5,30.54,WNW,288,13.0,15.0,67,0.00,,---,0.00,VWS V14.01,2013-03-02 00:57:00,
2013-03-01 18:02:00,27.8,18.3,30.54,WNW,290,10.0,13.0,67,0.00,,---,0.00,VWS V14.01,2013-03-02 01:02:00,
2013-03-01 18:07:00,27.6,18.1,30.54,WNW,283,13.0,16.0,67,0.00,,---,0.00,VWS V14.01,2013-03-02 01:07:00,
2013-03-01 18:12:00,27.6,18.1,30.54,WNW,288,12.0,14.0,67,0.00,,---,0.00,VWS V14.01,2013-03-02 01:12:00,
2013-03-01 18:17:00,27.4,17.9,30.54,West,277,11.0,13.0,67,0.00,,---,0.00,VWS V14.01,2013-03-02 01:17:00,
2013-03-01 18:22:00,27.4,17.9,30.54,WNW,288,10.0,13.0,67,0.00,,---,0.00,VWS V14.01,2013-03-02 01:22:00,
2013-03-01 18:27:00,27.4,17.9,30.54,West,280,10.0,11.0,67,0.00,,---,0.00,VWS V14.01,2013-03-02 01:27:00,
2013-03-01 18:32:00,27.3,17.8,30.55,WNW,290,12.0,12.0,67,0.00,,---,0.00,VWS V14.01,2013-03-02 01:32:00,
2013-03-01 18:37:00,27.3,17.8,30.55,WNW,290,13.0,13.0,67,0.00,,---,0.00,VWS V14.01,2013-03-02 01:37:00,
2013-03-01 18:42:00,27.3,17.8,30.55,WNW,286,11.0,12.0,67,0.00,,---,0.00,VWS V14.01,2013-03-02 01:42:00,
2013-03-01 18:47:00,27.2,17.7,30.56,WNW,289,9.0,10.0,67,0.00,,---,0.00,VWS V14.01,2013-03-02 01:47:00,
2013-03-01 18:52:00,27.0,17.5,30.56,WNW,290,11.0,14.0,67,0.00,,---,0.00,VWS V14.01,2013-03-02 01:52:00,
2013-03-01 18:57:00,27.1,17.6,30.56,WNW,291,10.0,12.0,67,0.00,,---,0.00,VWS V14.01,2013-03-02 01:57:00,
2013-03-01 19:02:00,27.0,17.5,30.56,WNW,287,12.0,12.0,67,0.00,,---,0.00,VWS V14.01,2013-03-02 02:02:00,
2013-03-01 19:07:00,26.8,17.3,30.56,WNW,285,10.0,12.0,67,0.00,,---,0.00,VWS V14.01,2013-03-02 02:07:00,
2013-03-01 19:12:00,26.7,17.6,30.56,West,281,14.0,14.0,68,0.00,,---,0.00,VWS V14.01,2013-03-02 02:12:00,
2013-03-01 19:17:00,26.8,17.3,30.56,WNW,285,10.0,12.0,67,0.00,,---,0.00,VWS V14.01,2013-03-02 02:17:00,
2013-03-01 19:22:00,26.6,17.1,30.56,West,277,11.0,13.0,67,0.00,,---,0.00,VWS V14.01,2013-03-02 02:22:00,
2013-03-01 19:27:00,26.4,17.3,30.56,West,277,14.0,14.0,68,0.00,,---,0.00,VWS V14.01,2013-03-02 02:27:00,
2013-03-01 19:32:00,26.5,17.4,30.57,West,275,11.0,12.0,68,0.00,,---,0.00,VWS V14.01,2013-03-02 02:32:00,
2013-03-01 19:37:00,26.4,16.9,30.56,West,275,11.0,14.0,67,0.00,,---,0.00,VWS V14.01,2013-03-02 02:37:00,
2013-03-01 19:42:00,26.3,17.2,30.56,West,275,10.0,11.0,68,0.00,,---,0.00,VWS V14.01,2013-03-02 02:42:00,
2013-03-01 19:47:00,25.9,16.8,30.57,West,275,6.0,9.0,68,0.00,,---,0.00,VWS V14.01,2013-03-02 02:47:00,
2013-03-01 19:52:00,25.7,17.0,30.56,West,275,7.0,9.0,69,0.00,,---,0.00,VWS V14.01,2013-03-02 02:52:00,
2013-03-01 19:57:00,25.6,16.9,30.56,West,275,7.0,8.0,69,0.00,,---,0.00,VWS V14.01,2013-03-02 02:57:00,
2013-03-01 20:02:00,25.6,16.5,30.56,West,275,9.0,9.0,68,0.00,,---,0.00,VWS V14.01,2013-03-02 03:02:00,
2013-03-01 20:07:00,25.6,16.2,30.56,West,275,0.0,1.0,67,0.00,,---,0.00,VWS V14.01,2013-03-02 03:07:00,
2013-03-01 20:12:00,25.2,15.4,30.56,West,275,0.0,3.0,66,0.00,,---,0.00,VWS V14.01,2013-03-02 03:12:00,
2013-03-01 20:17:00,24.9,16.2,30.57,West,275,10.0,10.0,69,0.00,,---,0.00,VWS V14.01,2013-03-02 03:17:00,
2013-03-01 20:22:00,24.9,16.8,30.57,West,273,3.0,4.0,71,0.00,,---,0.00,VWS V14.01,2013-03-02 03:22:00,
2013-03-01 20:27:00,24.9,16.8,30.57,West,274,3.0,3.0,71,0.00,,---,0.00,VWS V14.01,2013-03-02 03:27:00,
2013-03-01 20:32:00,24.8,16.8,30.57,South,191,9.0,9.0,71,0.00,,---,0.00,VWS V14.01,2013-03-02 03:32:00,
2013-03-01 20:37:00,24.9,16.8,30.57,South,190,0.0,0.0,71,0.00,,---,0.00,VWS V14.01,2013-03-02 03:37:00,
2013-03-01 20:42:00,24.5,16.1,30.57,NE,43,2.0,2.0,70,0.00,,---,0.00,VWS V14.01,2013-03-02 03:42:00,
2013-03-01 20:47:00,24.2,15.8,30.57,NE,43,1.0,2.0,70,0.00,,---,0.00,VWS V14.01,2013-03-02 03:47:00,
2013-03-01 20:52:00,24.0,15.6,30.57,NE,43,3.0,3.0,70,0.00,,---,0.00,VWS V14.01,2013-03-02 03:52:00,
2013-03-01 20:57:00,23.8,15.1,30.58,NNW,336,3.0,4.0,69,0.00,,---,0.00,VWS V14.01,2013-03-02 03:57:00,
2013-03-01 21:02:00,23.8,14.8,30.57,NNW,346,6.0,6.0,68,0.00,,---,0.00,VWS V14.01,2013-03-02 04:02:00,
2013-03-01 21:07:00,24.2,15.2,30.58,NNW,342,7.0,7.0,68,0.00,,---,0.00,VWS V14.01,2013-03-02 04:07:00,
2013-03-01 21:12:00,25.0,15.9,30.58,WNW,289,6.0,6.0,68,0.00,,---,0.00,VWS V14.01,2013-03-02 04:12:00,
2013-03-01 21:17:00,26.6,16.4,30.58,WNW,299,6.0,7.0,65,0.00,,---,0.00,VWS V14.01,2013-03-02 04:17:00,
2013-03-01 21:22:00,27.4,16.5,30.58,WNW,292,9.0,10.0,63,0.00,,---,0.00,VWS V14.01,2013-03-02 04:22:00,
2013-03-01 21:27:00,27.7,16.8,30.58,West,281,6.0,6.0,63,0.00,,---,0.00,VWS V14.01,2013-03-02 04:27:00,
2013-03-01 21:32:00,27.8,16.5,30.58,WNW,286,4.0,5.0,62,0.00,,---,0.00,VWS V14.01,2013-03-02 04:32:00,
2013-03-01 21:37:00,27.4,15.7,30.58,WNW,286,0.0,1.0,61,0.00,,---,0.00,VWS V14.01,2013-03-02 04:37:00,
2013-03-01 21:42:00,26.1,14.5,30.58,WNW,286,3.0,4.0,61,0.00,,---,0.00,VWS V14.01,2013-03-02 04:42:00,
2013-03-01 21:47:00,25.0,14.2,30.59,SW,221,5.0,7.0,63,0.00,,---,0.00,VWS V14.01,2013-03-02 04:47:00,
2013-03-01 21:52:00,24.2,14.8,30.58,East,101,3.0,5.0,67,0.00,,---,0.00,VWS V14.01,2013-03-02 04:52:00,
2013-03-01 21:57:00,23.8,14.5,30.58,ESE,105,5.0,5.0,67,0.00,,---,0.00,VWS V14.01,2013-03-02 04:57:00,
2013-03-01 22:00:00,23.5,14.2,30.59,NE,54,4.0,6.0,67,0.00,,---,0.00,VWS V14.01,2013-03-02 05:00:00,
2013-03-01 22:01:00,23.4,14.4,30.59,NE,55,4.0,6.0,68,0.00,,---,0.00,VWS V14.01,2013-03-02 05:01:00,
2013-03-01 22:06:00,23.2,14.6,30.59,NE,55,1.0,3.0,69,0.00,,---,0.00,VWS V14.01,2013-03-02 05:06:00,
2013-03-01 22:11:00,22.9,13.3,30.59,NE,55,0.0,0.0,66,0.00,,---,0.00,VWS V14.01,2013-03-02 05:11:00,
2013-03-01 22:16:00,22.0,12.4,30.59,NE,55,1.0,2.0,66,0.00,,---,0.00,VWS V14.01,2013-03-02 05:16:00,
2013-03-01 22:21:00,20.6,11.7,30.59,NE,48,0.0,0.0,68,0.00,,---,0.00,VWS V14.01,2013-03-02 05:21:00,
2013-03-01 22:26:00,19.9,12.3,30.59,NE,48,4.0,4.0,72,0.00,,---,0.00,VWS V14.01,2013-03-02 05:26:00,
2013-03-01 22:31:00,19.3,12.1,30.59,NE,48,1.0,1.0,73,0.00,,---,0.00,VWS V14.01,2013-03-02 05:31:00,
2013-03-01 22:36:00,18.9,12.0,30.59,NE,48,2.0,2.0,74,0.00,,---,0.00,VWS V14.01,2013-03-02 05:36:00,
2013-03-01 22:41:00,18.3,11.7,30.59,NE,47,1.0,3.0,75,0.00,,---,0.00,VWS V14.01,2013-03-02 05:41:00,
2013-03-01 22:46:00,17.7,11.1,30.59,NE,47,3.0,3.0,75,0.00,,---,0.00,VWS V14.01,2013-03-02 05:46:00,
2013-03-01 22:51:00,17.6,11.9,30.60,NE,47,0.0,0.0,78,0.00,,---,0.00,VWS V14.01,2013-03-02 05:51:00,
2013-03-01 22:56:00,17.5,12.1,30.60,NE,47,2.0,2.0,79,0.00,,---,0.00,VWS V14.01,2013-03-02 05:56:00,
2013-03-01 23:01:00,17.6,12.5,30.60,NE,48,2.0,2.0,80,0.00,,---,0.00,VWS V14.01,2013-03-02 06:01:00,
2013-03-01 23:06:00,17.6,12.2,30.60,NE,47,0.0,0.0,79,0.00,,---,0.00,VWS V14.01,2013-03-02 06:06:00,
2013-03-01 23:11:00,17.5,12.1,30.60,NE,47,0.0,0.0,79,0.00,,---,0.00,VWS V14.01,2013-03-02 06:11:00,
2013-03-01 23:16:00,17.4,12.0,30.60,NE,47,0.0,0.0,79,0.00,,---,0.00,VWS V14.01,2013-03-02 06:16:00,
2013-03-01 23:21:00,17.3,11.9,30.61,NE,47,0.0,0.0,79,0.00,,---,0.00,VWS V14.01,2013-03-02 06:21:00,
2013-03-01 23:26:00,17.1,12.0,30.61,NE,47,0.0,0.0,80,0.00,,---,0.00,VWS V14.01,2013-03-02 06:26:00,
2013-03-01 23:31:00,16.8,11.7,30.61,NE,47,0.0,1.0,80,0.00,,---,0.00,VWS V14.01,2013-03-02 06:31:00,
2013-03-01 23:36:00,16.6,11.5,30.62,NE,47,0.0,0.0,80,0.00,,---,0.00,VWS V14.01,2013-03-02 06:36:00,
2013-03-01 23:41:00,15.7,10.1,30.62,NNW,346,5.0,6.0,78,0.00,,---,0.00,VWS V14.01,2013-03-02 06:41:00,
2013-03-01 23:46:00,15.8,11.3,30.62,NNW,345,2.0,4.0,82,0.00,,---,0.00,VWS V14.01,2013-03-02 06:46:00,
2013-03-01 23:51:00,16.2,12.0,30.62,NNW,345,0.0,0.0,83,0.00,,---,0.00,VWS V14.01,2013-03-02 06:51:00,
2013-03-01 23:56:00,16.3,12.1,30.62,NNW,345,0.0,0.0,83,0.00,,---,0.00,VWS V14.01,2013-03-02 06:56:00,